Time,TemperatureF,DewpointF,PressureIn,WindDirection,WindDirectionDegrees,WindSpeedMPH,WindSpeedGustMPH,Humidity,HourlyPrecipIn,Conditions,Clouds,dailyrainin,SoftwareType,DateUTC
2013-10-11 00:01:00,54.2,49.2,30.08,NE,55,0.0,0.0,83,0.00,,---,0.00,VWS V14.01,2013-10-11 04:01:00,
2013-10-11 00:02:00,54.2,49.2,30.08,NE,55,0.0,0.0,83,0.00,,---,0.00,VWS V14.01,2013-10-11 04:02:00,
2013-10-11 00:07:00,54.2,49.2,30.08,NE,55,0.0,0.0,83,0.00,,---,0.00,VWS V14.01,2013-10-11 04:07:00,
2013-10-11 00:12:00,54.3,49.3,30.08,NE,55,0.0,0.0,83,0.00,,---,0.00,VWS V14.01,2013-10-11 04:12:00,
2013-10-11 00:17:00,54.3,49.3,30.08,NE,55,0.0,0.0,83,0.00,,---,0.00,VWS V14.01,2013-10-11 04:17:00,
2013-10-11 00:22:00,54.3,49.3,30.07,NE,55,0.0,0.0,83,0.00,,---,0.00,VWS V14.01,2013-10-11 04:22:00,
2013-10-11 00:27:00,54.4,49.3,30.07,NE,55,0.0,0.0,83,0.00,,---,0.00,VWS V14.01,2013-10-11 04:27:00,
2013-10-11 00:32:00,54.4,49.3,30.07,NE,55,0.0,0.0,83,0.00,,---,0.00,VWS V14.01,2013-10-11 04:32:00,
2013-10-11 00:37:00,54.4,49.3,30.07,NE,55,0.0,0.0,83,0.00,,---,0.00,VWS V14.01,2013-10-11 04:37:00,
2013-10-11 00:42:00,54.4,49.7,30.06,NE,55,0.0,0.0,84,0.00,,---,0.00,VWS V14.01,2013-10-11 04:42:00,
2013-10-11 00:47:00,54.4,49.7,30.06,NE,55,0.0,0.0,84,0.00,,---,0.00,VWS V14.01,2013-10-11 04:47:00,
2013-10-11 00:52:00,54.3,49.3,30.06,NE,55,0.0,0.0,83,0.00,,---,0.00,VWS V14.01,2013-10-11 04:52:00,
2013-10-11 00:57:00,54.3,49.3,30.06,NE,55,0.0,0.0,83,0.00,,---,0.00,VWS V14.01,2013-10-11 04:57:00,
2013-10-11 01:02:00,54.2,49.2,30.06,NE,55,0.0,0.0,83,0.00,,---,0.00,VWS V14.01,2013-10-11 05:02:00,
2013-10-11 01:07:00,54.2,49.5,30.06,NE,55,0.0,0.0,84,0.00,,---,0.00,VWS V14.01,2013-10-11 05:07:00,
2013-10-11 01:12:00,54.1,49.4,30.06,NE,55,0.0,0.0,84,0.00,,---,0.00,VWS V14.01,2013-10-11 05:12:00,
2013-10-11 01:17:00,54.0,49.3,30.06,NE,55,0.0,0.0,84,0.00,,---,0.00,VWS V14.01,2013-10-11 05:17:00,
2013-10-11 01:22:00,54.0,49.6,30.06,NE,55,0.0,0.0,85,0.00,,---,0.00,VWS V14.01,2013-10-11 05:22:00,
2013-10-11 01:27:00,53.9,49.2,30.06,NE,55,0.0,0.0,84,0.00,,---,0.00,VWS V14.01,2013-10-11 05:27:00,
2013-10-11 01:32:00,53.8,49.4,30.05,NE,55,0.0,0.0,85,0.00,,---,0.00,VWS V14.01,2013-10-11 05:32:00,
2013-10-11 01:37:00,53.7,49.3,30.05,NE,55,0.0,0.0,85,0.00,,---,0.00,VWS V14.01,2013-10-11 05:37:00,
2013-10-11 01:42:00,53.7,49.3,30.05,NE,55,0.0,0.0,85,0.00,,---,0.00,VWS V14.01,2013-10-11 05:42:00,
2013-10-11 01:47:00,53.6,49.2,30.05,NE,53,0.0,1.0,85,0.00,,---,0.00,VWS V14.01,2013-10-11 05:47:00,
2013-10-11 01:52:00,53.5,49.1,30.06,NE,53,0.0,0.0,85,0.00,,---,0.00,VWS V14.01,2013-10-11 05:52:00,
2013-10-11 01:57:00,53.4,49.0,30.06,NE,53,0.0,0.0,85,0.00,,---,0.00,VWS V14.01,2013-10-11 05:57:00,
2013-10-11 02:02:00,53.3,48.9,30.06,NE,53,0.0,0.0,85,0.00,,---,0.00,VWS V14.01,2013-10-11 06:02:00,
2013-10-11 02:07:00,53.3,49.2,30.06,NE,53,0.0,0.0,86,0.00,,---,0.00,VWS V14.01,2013-10-11 06:07:00,
2013-10-11 02:12:00,53.1,49.0,30.06,NE,53,0.0,0.0,86,0.00,,---,0.00,VWS V14.01,2013-10-11 06:12:00,
2013-10-11 02:17:00,53.1,49.0,30.06,NE,53,0.0,0.0,86,0.00,,---,0.00,VWS V14.01,2013-10-11 06:17:00,
2013-10-11 02:22:00,52.9,48.8,30.06,NE,53,0.0,0.0,86,0.00,,---,0.00,VWS V14.01,2013-10-11 06:22:00,
2013-10-11 02:27:00,52.8,48.7,30.06,NE,53,0.0,0.0,86,0.00,,---,0.00,VWS V14.01,2013-10-11 06:27:00,
2013-10-11 02:32:00,52.7,48.6,30.06,NE,53,0.0,0.0,86,0.00,,---,0.00,VWS V14.01,2013-10-11 06:32:00,
2013-10-11 02:37:00,52.6,48.5,30.06,NE,53,0.0,0.0,86,0.00,,---,0.00,VWS V14.01,2013-10-11 06:37:00,
2013-10-11 02:42:00,52.6,48.5,30.06,NE,53,0.0,0.0,86,0.00,,---,0.00,VWS V14.01,2013-10-11 06:42:00,
2013-10-11 02:47:00,52.5,48.4,30.06,NE,53,0.0,0.0,86,0.00,,---,0.00,VWS V14.01,2013-10-11 06:47:00,
2013-10-11 02:52:00,52.4,48.7,30.06,NE,53,0.0,0.0,87,0.00,,---,0.00,VWS V14.01,2013-10-11 06:52:00,
2013-10-11 02:57:00,52.3,48.5,30.06,NE,53,0.0,0.0,87,0.00,,---,0.00,VWS V14.01,2013-10-11 06:57:00,
2013-10-11 03:02:00,52.3,48.5,30.05,NE,53,0.0,0.0,87,0.00,,---,0.00,VWS V14.01,2013-10-11 07:02:00,
2013-10-11 03:07:00,52.2,48.8,30.05,NE,53,0.0,0.0,88,0.00,,---,0.00,VWS V14.01,2013-10-11 07:07:00,
2013-10-11 03:12:00,52.2,48.8,30.05,NE,53,0.0,0.0,88,0.00,,---,0.00,VWS V14.01,2013-10-11 07:12:00,
2013-10-11 03:17:00,52.2,48.8,30.05,NE,53,0.0,0.0,88,0.00,,---,0.00,VWS V14.01,2013-10-11 07:17:00,
2013-10-11 03:22:00,52.2,48.8,30.05,NE,53,0.0,0.0,88,0.00,,---,0.00,VWS V14.01,2013-10-11 07:22:00,
2013-10-11 03:27:00,52.2,48.8,30.05,NE,53,0.0,0.0,88,0.00,,---,0.00,VWS V14.01,2013-10-11 07:27:00,
2013-10-11 03:32:00,52.2,49.1,30.05,NE,53,0.0,0.0,89,0.00,,---,0.00,VWS V14.01,2013-10-11 07:32:00,
2013-10-11 03:37:00,52.2,49.1,30.05,NE,53,0.0,0.0,89,0.00,,---,0.00,VWS V14.01,2013-10-11 07:37:00,
2013-10-11 03:42:00,52.3,49.2,30.05,NE,36,0.0,1.0,89,0.00,,---,0.00,VWS V14.01,2013-10-11 07:42:00,
2013-10-11 03:47:00,52.3,49.2,30.05,NE,36,0.0,0.0,89,0.00,,---,0.00,VWS V14.01,2013-10-11 07:47:00,
2013-10-11 03:52:00,52.4,49.3,30.05,NE,36,0.0,0.0,89,0.00,,---,0.00,VWS V14.01,2013-10-11 07:52:00,
2013-10-11 03:57:00,52.5,49.4,30.05,NNE,32,0.0,1.0,89,0.00,,---,0.00,VWS V14.01,2013-10-11 07:57:00,
2013-10-11 04:02:00,52.6,49.2,30.05,North,355,0.0,0.0,88,0.00,,---,0.00,VWS V14.01,2013-10-11 08:02:00,
2013-10-11 04:07:00,52.6,49.2,30.05,North,360,0.0,0.0,88,0.00,,---,0.00,VWS V14.01,2013-10-11 08:07:00,
2013-10-11 04:12:00,52.7,49.2,30.05,NNE,15,0.0,0.0,88,0.00,,---,0.00,VWS V14.01,2013-10-11 08:12:00,
2013-10-11 04:18:00,52.8,49.3,30.05,NNE,14,0.0,0.0,88,0.00,,---,0.00,VWS V14.01,2013-10-11 08:18:00,
2013-10-11 04:24:00,52.9,49.5,30.05,North,360,0.0,2.0,88,0.00,,---,0.00,VWS V14.01,2013-10-11 08:24:00,
2013-10-11 04:29:00,53.0,49.2,30.05,North,360,0.0,0.0,87,0.00,,---,0.00,VWS V14.01,2013-10-11 08:29:00,
2013-10-11 04:34:00,53.1,49.3,30.05,North,9,0.0,0.0,87,0.00,,---,0.00,VWS V14.01,2013-10-11 08:34:00,
2013-10-11 04:39:00,53.2,49.4,30.05,North,9,0.0,0.0,87,0.00,,---,0.00,VWS V14.01,2013-10-11 08:39:00,
2013-10-11 04:44:00,53.3,49.5,30.05,WNW,296,0.0,0.0,87,0.00,,---,0.00,VWS V14.01,2013-10-11 08:44:00,
2013-10-11 04:49:00,53.4,49.3,30.06,WNW,296,0.0,0.0,86,0.00,,---,0.00,VWS V14.01,2013-10-11 08:49:00,
2013-10-11 04:54:00,53.5,49.4,30.06,WNW,296,0.0,0.0,86,0.00,,---,0.00,VWS V14.01,2013-10-11 08:54:00,
2013-10-11 04:59:00,53.6,49.5,30.06,WNW,296,0.0,0.0,86,0.00,,---,0.00,VWS V14.01,2013-10-11 08:59:00,
2013-10-11 05:04:00,53.7,49.6,30.06,WNW,296,0.0,0.0,86,0.00,,---,0.00,VWS V14.01,2013-10-11 09:04:00,
2013-10-11 05:09:00,53.8,49.7,30.06,NE,54,0.0,1.0,86,0.00,,---,0.00,VWS V14.01,2013-10-11 09:09:00,
2013-10-11 05:14:00,53.8,49.7,30.06,NE,54,0.0,0.0,86,0.00,,---,0.00,VWS V14.01,2013-10-11 09:14:00,
2013-10-11 05:19:00,53.9,49.5,30.06,NNW,345,0.0,0.0,85,0.00,,---,0.00,VWS V14.01,2013-10-11 09:19:00,
2013-10-11 05:24:00,54.0,49.6,30.06,WNW,286,0.0,0.0,85,0.00,,---,0.00,VWS V14.01,2013-10-11 09:24:00,
2013-10-11 05:29:00,54.1,49.7,30.06,WSW,257,0.0,0.0,85,0.00,,---,0.00,VWS V14.01,2013-10-11 09:29:00,
2013-10-11 05:34:00,54.2,49.8,30.06,WSW,257,0.0,0.0,85,0.00,,---,0.00,VWS V14.01,2013-10-11 09:34:00,
2013-10-11 05:39:00,54.2,49.8,30.06,WSW,257,0.0,0.0,85,0.00,,---,0.00,VWS V14.01,2013-10-11 09:39:00,
2013-10-11 05:44:00,54.2,49.8,30.06,ENE,64,0.0,0.0,85,0.00,,---,0.00,VWS V14.01,2013-10-11 09:44:00,
2013-10-11 05:49:00,54.3,49.9,30.06,ENE,64,0.0,0.0,85,0.00,,---,0.00,VWS V14.01,2013-10-11 09:49:00,
2013-10-11 05:54:00,54.4,50.0,30.06,North,11,0.0,0.0,85,0.00,,---,0.00,VWS V14.01,2013-10-11 09:54:00,
2013-10-11 05:59:00,54.4,50.3,30.06,NW,315,0.0,0.0,86,0.00,,---,0.00,VWS V14.01,2013-10-11 09:59:00,
2013-10-11 06:04:00,54.3,50.2,30.06,NE,49,0.0,0.0,86,0.00,,---,0.00,VWS V14.01,2013-10-11 10:04:00,
2013-10-11 06:09:00,54.2,50.4,30.06,NE,49,0.0,0.0,87,0.00,,---,0.00,VWS V14.01,2013-10-11 10:09:00,
2013-10-11 06:14:00,54.1,50.3,30.06,NE,49,0.0,0.0,87,0.00,,---,0.00,VWS V14.01,2013-10-11 10:14:00,
2013-10-11 06:19:00,54.1,50.6,30.06,NE,49,0.0,0.0,88,0.00,,---,0.00,VWS V14.01,2013-10-11 10:19:00,
2013-10-11 06:24:00,54.0,50.5,30.06,WNW,295,0.0,0.0,88,0.00,,---,0.00,VWS V14.01,2013-10-11 10:24:00,
2013-10-11 06:29:00,53.9,50.7,30.06,WNW,295,0.0,0.0,89,0.00,,---,0.00,VWS V14.01,2013-10-11 10:29:00,
2013-10-11 06:34:00,53.8,50.6,30.06,WNW,295,0.0,0.0,89,0.00,,---,0.00,VWS V14.01,2013-10-11 10:34:00,
2013-10-11 06:39:00,53.7,50.5,30.07,NNE,31,0.0,1.0,89,0.00,,---,0.00,VWS V14.01,2013-10-11 10:39:00,
2013-10-11 06:44:00,53.7,50.5,30.07,NNE,31,0.0,0.0,89,0.00,,---,0.00,VWS V14.01,2013-10-11 10:44:00,
2013-10-11 06:49:00,53.6,50.7,30.07,NNE,31,0.0,0.0,90,0.00,,---,0.00,VWS V14.01,2013-10-11 10:49:00,
2013-10-11 06:54:00,53.5,50.6,30.07,NNE,24,0.0,0.0,90,0.00,,---,0.00,VWS V14.01,2013-10-11 10:54:00,
2013-10-11 06:59:00,53.5,50.6,30.07,NNE,24,0.0,0.0,90,0.00,,---,0.00,VWS V14.01,2013-10-11 10:59:00,
2013-10-11 07:04:00,53.4,50.5,30.07,NNE,24,0.0,0.0,90,0.00,,---,0.00,VWS V14.01,2013-10-11 11:04:00,
2013-10-11 07:09:00,53.4,50.5,30.07,NNE,24,0.0,0.0,90,0.00,,---,0.00,VWS V14.01,2013-10-11 11:09:00,
2013-10-11 07:14:00,53.3,50.7,30.07,NNE,22,0.0,0.0,91,0.00,,---,0.00,VWS V14.01,2013-10-11 11:14:00,
2013-10-11 07:19:00,53.3,50.7,30.07,NNE,22,0.0,0.0,91,0.00,,---,0.00,VWS V14.01,2013-10-11 11:19:00,
2013-10-11 07:24:00,53.2,50.7,30.07,NNE,24,0.0,0.0,91,0.00,,---,0.00,VWS V14.01,2013-10-11 11:24:00,
2013-10-11 07:29:00,53.2,50.7,30.07,NNE,24,0.0,0.0,91,0.00,,---,0.00,VWS V14.01,2013-10-11 11:29:00,
2013-10-11 07:34:00,53.2,50.7,30.07,NNE,24,0.0,0.0,91,0.00,,---,0.00,VWS V14.01,2013-10-11 11:34:00,
2013-10-11 07:39:00,53.2,50.9,30.07,NNE,24,0.0,0.0,92,0.00,,---,0.00,VWS V14.01,2013-10-11 11:39:00,
2013-10-11 07:44:00,53.2,50.9,30.06,NNE,24,0.0,0.0,92,0.00,,---,0.00,VWS V14.01,2013-10-11 11:44:00,
2013-10-11 07:49:00,53.2,50.9,30.06,NNE,24,0.0,0.0,92,0.00,,---,0.00,VWS V14.01,2013-10-11 11:49:00,
2013-10-11 07:54:00,53.2,50.9,30.06,NNE,24,0.0,0.0,92,0.00,,---,0.00,VWS V14.01,2013-10-11 11:54:00,
2013-10-11 07:59:00,53.2,50.9,30.07,NNE,24,0.0,0.0,92,0.00,,---,0.00,VWS V14.01,2013-10-11 11:59:00,
2013-10-11 08:04:00,53.2,50.9,30.07,NNE,24,0.0,0.0,92,0.00,,---,0.00,VWS V14.01,2013-10-11 12:04:00,
2013-10-11 08:09:00,53.3,51.3,30.07,ESE,107,0.0,0.0,93,0.00,,---,0.00,VWS V14.01,2013-10-11 12:09:00,
2013-10-11 08:14:00,53.3,51.3,30.07,NE,54,0.0,0.0,93,0.00,,---,0.00,VWS V14.01,2013-10-11 12:14:00,
2013-10-11 08:19:00,53.2,51.2,30.07,NE,54,0.0,0.0,93,0.00,,---,0.00,VWS V14.01,2013-10-11 12:19:00,
2013-10-11 08:24:00,53.2,51.2,30.07,NE,54,0.0,0.0,93,0.00,,---,0.00,VWS V14.01,2013-10-11 12:24:00,
2013-10-11 08:29:00,53.3,51.3,30.07,NE,54,0.0,0.0,93,0.00,,---,0.00,VWS V14.01,2013-10-11 12:29:00,
2013-10-11 08:34:00,53.3,51.3,30.07,NE,54,0.0,0.0,93,0.00,,---,0.00,VWS V14.01,2013-10-11 12:34:00,
2013-10-11 08:39:00,53.4,51.4,30.07,NE,43,0.0,0.0,93,0.00,,---,0.00,VWS V14.01,2013-10-11 12:39:00,
2013-10-11 08:44:00,53.5,51.5,30.07,North,9,0.0,0.0,93,0.00,,---,0.00,VWS V14.01,2013-10-11 12:44:00,
2013-10-11 08:49:00,53.5,51.5,30.07,North,9,0.0,0.0,93,0.00,,---,0.00,VWS V14.01,2013-10-11 12:49:00,
2013-10-11 08:54:00,53.6,51.9,30.07,NNW,330,0.0,0.0,94,0.00,,---,0.00,VWS V14.01,2013-10-11 12:54:00,
2013-10-11 08:59:00,53.6,51.9,30.07,NNE,30,0.0,3.0,94,0.00,,---,0.00,VWS V14.01,2013-10-11 12:59:00,
2013-10-11 09:04:00,53.6,51.9,30.07,NW,316,0.0,0.0,94,0.00,,---,0.00,VWS V14.01,2013-10-11 13:04:00,
2013-10-11 09:09:00,53.6,51.9,30.08,NW,316,0.0,1.0,94,0.00,,---,0.00,VWS V14.01,2013-10-11 13:09:00,
2013-10-11 09:14:00,53.6,51.9,30.08,NNE,28,0.0,1.0,94,0.00,,---,0.00,VWS V14.01,2013-10-11 13:14:00,
2013-10-11 09:19:00,53.5,51.8,30.08,NNW,339,0.0,0.0,94,0.00,,---,0.00,VWS V14.01,2013-10-11 13:19:00,
2013-10-11 09:24:00,53.5,51.8,30.08,NNW,341,0.0,0.0,94,0.00,,---,0.00,VWS V14.01,2013-10-11 13:24:00,
2013-10-11 09:29:00,53.5,51.8,30.08,NNW,341,0.0,0.0,94,0.00,,---,0.00,VWS V14.01,2013-10-11 13:29:00,
2013-10-11 09:34:00,53.6,51.9,30.08,NNE,22,0.0,2.0,94,0.00,,---,0.00,VWS V14.01,2013-10-11 13:34:00,
2013-10-11 09:39:00,53.7,52.0,30.08,NNE,30,0.0,0.0,94,0.00,,---,0.00,VWS V14.01,2013-10-11 13:39:00,
2013-10-11 09:44:00,53.7,52.0,30.08,NNE,30,0.0,0.0,94,0.00,,---,0.00,VWS V14.01,2013-10-11 13:44:00,
2013-10-11 09:49:00,53.7,52.0,30.08,NW,314,0.0,0.0,94,0.00,,---,0.00,VWS V14.01,2013-10-11 13:49:00,
2013-10-11 09:54:00,53.7,52.0,30.08,NW,311,0.0,0.0,94,0.00,,---,0.00,VWS V14.01,2013-10-11 13:54:00,
2013-10-11 09:59:00,53.8,52.4,30.08,WNW,292,0.0,0.0,95,0.00,,---,0.00,VWS V14.01,2013-10-11 13:59:00,
2013-10-11 10:04:00,53.9,52.5,30.08,NNE,33,0.0,0.0,95,0.00,,---,0.00,VWS V14.01,2013-10-11 14:04:00,
2013-10-11 10:09:00,54.1,52.7,30.08,NNE,33,1.0,1.0,95,0.00,,---,0.00,VWS V14.01,2013-10-11 14:09:00,
2013-10-11 10:14:00,54.3,52.9,30.08,NNE,33,0.0,0.0,95,0.00,,---,0.00,VWS V14.01,2013-10-11 14:14:00,
2013-10-11 10:19:00,54.5,53.1,30.08,NW,310,1.0,1.0,95,0.00,,---,0.00,VWS V14.01,2013-10-11 14:19:00,
2013-10-11 10:24:00,54.6,53.2,30.08,West,271,1.0,1.0,95,0.00,,---,0.00,VWS V14.01,2013-10-11 14:24:00,
2013-10-11 10:29:00,54.6,53.2,30.08,West,273,0.0,1.0,95,0.00,,---,0.00,VWS V14.01,2013-10-11 14:29:00,
2013-10-11 10:34:00,54.6,53.2,30.09,NNW,340,0.0,4.0,95,0.00,,---,0.00,VWS V14.01,2013-10-11 14:34:00,
2013-10-11 10:39:00,54.7,53.3,30.09,NNW,346,0.0,1.0,95,0.00,,---,0.00,VWS V14.01,2013-10-11 14:39:00,
2013-10-11 10:44:00,54.6,53.2,30.09,NNE,14,0.0,0.0,95,0.00,,---,0.00,VWS V14.01,2013-10-11 14:44:00,
2013-10-11 10:49:00,54.7,53.3,30.09,North,5,0.0,1.0,95,0.00,,---,0.00,VWS V14.01,2013-10-11 14:49:00,
2013-10-11 10:54:00,54.6,53.2,30.09,NNE,15,0.0,0.0,95,0.00,,---,0.00,VWS V14.01,2013-10-11 14:54:00,
2013-10-11 10:59:00,54.6,53.2,30.08,ENE,62,0.0,0.0,95,0.00,,---,0.00,VWS V14.01,2013-10-11 14:59:00,
2013-10-11 11:04:00,54.7,53.3,30.08,ENE,67,0.0,1.0,95,0.00,,---,0.00,VWS V14.01,2013-10-11 15:04:00,
2013-10-11 11:09:00,54.7,53.3,30.08,North,5,0.0,0.0,95,0.00,,---,0.00,VWS V14.01,2013-10-11 15:09:00,
2013-10-11 11:14:00,54.8,53.4,30.09,North,5,0.0,0.0,95,0.00,,---,0.00,VWS V14.01,2013-10-11 15:14:00,
2013-10-11 11:19:00,54.8,53.4,30.08,North,5,0.0,0.0,95,0.00,,---,0.00,VWS V14.01,2013-10-11 15:19:00,
2013-10-11 11:24:00,54.9,53.5,30.09,North,5,0.0,0.0,95,0.00,,---,0.00,VWS V14.01,2013-10-11 15:24:00,
2013-10-11 11:29:00,55.0,53.6,30.08,WSW,246,0.0,0.0,95,0.00,,---,0.00,VWS V14.01,2013-10-11 15:29:00,
2013-10-11 11:34:00,55.1,53.7,30.08,ENE,60,0.0,0.0,95,0.00,,---,0.00,VWS V14.01,2013-10-11 15:34:00,
2013-10-11 11:39:00,55.2,53.8,30.09,ENE,60,0.0,0.0,95,0.00,,---,0.00,VWS V14.01,2013-10-11 15:39:00,
2013-10-11 11:44:00,55.2,53.8,30.08,North,9,3.0,3.0,95,0.00,,---,0.00,VWS V14.01,2013-10-11 15:44:00,
2013-10-11 11:49:00,55.2,53.8,30.08,NE,50,2.0,3.0,95,0.00,,---,0.00,VWS V14.01,2013-10-11 15:49:00,
2013-10-11 11:54:00,55.3,53.9,30.08,NNW,347,0.0,0.0,95,0.00,,---,0.00,VWS V14.01,2013-10-11 15:54:00,
2013-10-11 11:59:00,55.3,53.9,30.08,NNW,348,1.0,1.0,95,0.00,,---,0.00,VWS V14.01,2013-10-11 15:59:00,
2013-10-11 12:04:00,55.4,54.0,30.08,West,280,0.0,0.0,95,0.00,,---,0.00,VWS V14.01,2013-10-11 16:04:00,
2013-10-11 12:09:00,55.6,54.2,30.08,West,280,0.0,0.0,95,0.00,,---,0.00,VWS V14.01,2013-10-11 16:09:00,
2013-10-11 12:14:00,55.8,54.4,30.08,NNE,14,0.0,2.0,95,0.00,,---,0.00,VWS V14.01,2013-10-11 16:14:00,
2013-10-11 12:19:00,55.8,54.4,30.08,NNE,15,0.0,0.0,95,0.00,,---,0.00,VWS V14.01,2013-10-11 16:19:00,
2013-10-11 12:24:00,55.9,54.8,30.08,NNW,343,0.0,0.0,96,0.00,,---,0.00,VWS V14.01,2013-10-11 16:24:00,
2013-10-11 12:29:00,56.0,54.9,30.08,NNW,343,0.0,0.0,96,0.00,,---,0.00,VWS V14.01,2013-10-11 16:29:00,
2013-10-11 12:34:00,56.1,54.7,30.08,NNW,344,0.0,1.0,95,0.00,,---,0.00,VWS V14.01,2013-10-11 16:34:00,
2013-10-11 12:39:00,56.2,54.8,30.08,NNW,344,0.0,0.0,95,0.00,,---,0.00,VWS V14.01,2013-10-11 16:39:00,
2013-10-11 12:44:00,56.2,54.8,30.08,East,88,0.0,0.0,95,0.00,,---,0.00,VWS V14.01,2013-10-11 16:44:00,
2013-10-11 12:49:00,56.4,55.0,30.08,NNE,24,0.0,0.0,95,0.00,,---,0.00,VWS V14.01,2013-10-11 16:49:00,
2013-10-11 12:54:00,56.6,55.5,30.08,NNE,24,0.0,0.0,96,0.00,,---,0.00,VWS V14.01,2013-10-11 16:54:00,
2013-10-11 12:59:00,56.8,55.7,30.08,North,360,0.0,0.0,96,0.00,,---,0.00,VWS V14.01,2013-10-11 16:59:00,
2013-10-11 13:04:00,56.9,55.8,30.08,ENE,67,1.0,4.0,96,0.00,,---,0.00,VWS V14.01,2013-10-11 17:04:00,
2013-10-11 13:09:00,57.1,56.0,30.08,NE,36,2.0,2.0,96,0.00,,---,0.00,VWS V14.01,2013-10-11 17:09:00,
2013-10-11 13:14:00,57.2,56.1,30.07,NNE,33,0.0,0.0,96,0.00,,---,0.00,VWS V14.01,2013-10-11 17:14:00,
2013-10-11 13:19:00,57.4,56.3,30.07,NNE,22,0.0,0.0,96,0.00,,---,0.00,VWS V14.01,2013-10-11 17:19:00,
2013-10-11 13:24:00,57.5,56.4,30.07,North,5,0.0,0.0,96,0.00,,---,0.00,VWS V14.01,2013-10-11 17:24:00,
2013-10-11 13:29:00,57.6,56.5,30.07,NNE,14,0.0,2.0,96,0.00,,---,0.00,VWS V14.01,2013-10-11 17:29:00,
2013-10-11 13:34:00,57.7,56.6,30.07,West,280,0.0,0.0,96,0.00,,---,0.00,VWS V14.01,2013-10-11 17:34:00,
2013-10-11 13:39:00,57.7,56.6,30.06,NNE,31,0.0,1.0,96,0.00,,---,0.00,VWS V14.01,2013-10-11 17:39:00,
2013-10-11 13:44:00,57.7,56.6,30.06,NW,310,0.0,0.0,96,0.00,,---,0.00,VWS V14.01,2013-10-11 17:44:00,
2013-10-11 13:49:00,57.7,56.6,30.06,WNW,297,1.0,2.0,96,0.00,,---,0.00,VWS V14.01,2013-10-11 17:49:00,
2013-10-11 13:54:00,57.6,56.5,30.06,NNW,338,0.0,1.0,96,0.00,,---,0.00,VWS V14.01,2013-10-11 17:54:00,
2013-10-11 13:59:00,57.6,56.2,30.06,NE,51,0.0,0.0,95,0.00,,---,0.00,VWS V14.01,2013-10-11 17:59:00,
2013-10-11 14:04:00,57.6,56.2,30.06,NNE,22,1.0,1.0,95,0.00,,---,0.00,VWS V14.01,2013-10-11 18:04:00,
2013-10-11 14:09:00,57.8,56.7,30.05,East,90,0.0,1.0,96,0.00,,---,0.00,VWS V14.01,2013-10-11 18:09:00,
2013-10-11 14:14:00,58.2,57.1,30.05,East,89,0.0,0.0,96,0.00,,---,0.00,VWS V14.01,2013-10-11 18:14:00,
2013-10-11 14:19:00,58.5,57.4,30.05,West,274,0.0,0.0,96,0.00,,---,0.00,VWS V14.01,2013-10-11 18:19:00,
2013-10-11 14:24:00,58.7,57.6,30.05,NE,49,1.0,1.0,96,0.00,,---,0.00,VWS V14.01,2013-10-11 18:24:00,
2013-10-11 14:29:00,58.7,57.3,30.05,WNW,288,0.0,0.0,95,0.00,,---,0.00,VWS V14.01,2013-10-11 18:29:00,
2013-10-11 14:34:00,58.8,57.4,30.05,WNW,302,0.0,0.0,95,0.00,,---,0.00,VWS V14.01,2013-10-11 18:34:00,
2013-10-11 14:39:00,58.9,57.5,30.05,NNE,13,0.0,1.0,95,0.00,,---,0.00,VWS V14.01,2013-10-11 18:39:00,
2013-10-11 14:44:00,58.9,57.5,30.05,ENE,59,1.0,1.0,95,0.00,,---,0.00,VWS V14.01,2013-10-11 18:44:00,
2013-10-11 14:49:00,59.0,57.6,30.05,ENE,57,0.0,0.0,95,0.01,,---,0.01,VWS V14.01,2013-10-11 18:49:00,
2013-10-11 14:54:00,59.1,57.7,30.05,NNE,30,0.0,1.0,95,0.01,,---,0.01,VWS V14.01,2013-10-11 18:54:00,
2013-10-11 14:59:00,59.1,57.7,30.05,NW,324,0.0,1.0,95,0.01,,---,0.01,VWS V14.01,2013-10-11 18:59:00,
2013-10-11 15:04:00,59.2,57.8,30.05,ENE,68,0.0,0.0,95,0.01,,---,0.01,VWS V14.01,2013-10-11 19:04:00,
2013-10-11 15:09:00,59.4,58.0,30.04,NNW,341,0.0,0.0,95,0.01,,---,0.01,VWS V14.01,2013-10-11 19:09:00,
2013-10-11 15:14:00,59.6,58.2,30.04,NW,322,0.0,0.0,95,0.01,,---,0.01,VWS V14.01,2013-10-11 19:14:00,
2013-10-11 15:19:00,59.8,58.4,30.04,NW,322,0.0,1.0,95,0.01,,---,0.01,VWS V14.01,2013-10-11 19:19:00,
2013-10-11 15:24:00,59.8,58.1,30.04,West,275,1.0,1.0,94,0.01,,---,0.01,VWS V14.01,2013-10-11 19:24:00,
2013-10-11 15:29:00,59.7,58.0,30.04,NNW,348,0.0,1.0,94,0.01,,---,0.01,VWS V14.01,2013-10-11 19:29:00,
2013-10-11 15:34:00,59.7,58.3,30.04,ENE,64,0.0,1.0,95,0.01,,---,0.01,VWS V14.01,2013-10-11 19:34:00,
2013-10-11 15:39:00,59.9,58.5,30.04,ENE,64,0.0,0.0,95,0.01,,---,0.01,VWS V14.01,2013-10-11 19:39:00,
2013-10-11 15:44:00,60.0,58.6,30.04,ENE,64,0.0,0.0,95,0.01,,---,0.01,VWS V14.01,2013-10-11 19:44:00,
2013-10-11 15:49:00,60.3,58.9,30.04,North,5,0.0,5.0,95,0.00,,---,0.01,VWS V14.01,2013-10-11 19:49:00,
2013-10-11 15:54:00,60.3,58.9,30.04,NE,38,0.0,0.0,95,0.00,,---,0.01,VWS V14.01,2013-10-11 19:54:00,
2013-10-11 15:59:00,60.3,58.9,30.04,ENE,58,0.0,0.0,95,0.00,,---,0.01,VWS V14.01,2013-10-11 19:59:00,
2013-10-11 16:04:00,60.3,58.9,30.04,ENE,58,0.0,0.0,95,0.00,,---,0.01,VWS V14.01,2013-10-11 20:04:00,
2013-10-11 16:09:00,60.3,58.6,30.05,ENE,57,0.0,0.0,94,0.00,,---,0.01,VWS V14.01,2013-10-11 20:09:00,
2013-10-11 16:14:00,60.2,58.5,30.05,NW,323,0.0,0.0,94,0.00,,---,0.01,VWS V14.01,2013-10-11 20:14:00,
2013-10-11 16:19:00,60.1,58.4,30.05,NNW,334,0.0,0.0,94,0.00,,---,0.01,VWS V14.01,2013-10-11 20:19:00,
2013-10-11 16:24:00,60.1,58.4,30.05,NNW,330,0.0,0.0,94,0.00,,---,0.01,VWS V14.01,2013-10-11 20:24:00,
2013-10-11 16:29:00,60.1,58.4,30.05,NNE,18,0.0,0.0,94,0.00,,---,0.01,VWS V14.01,2013-10-11 20:29:00,
2013-10-11 16:34:00,60.0,58.3,30.05,NNE,19,0.0,0.0,94,0.00,,---,0.01,VWS V14.01,2013-10-11 20:34:00,
2013-10-11 16:39:00,60.0,58.3,30.05,NNW,340,0.0,0.0,94,0.00,,---,0.01,VWS V14.01,2013-10-11 20:39:00,
2013-10-11 16:44:00,59.9,58.2,30.05,North,11,0.0,1.0,94,0.00,,---,0.01,VWS V14.01,2013-10-11 20:44:00,
2013-10-11 16:49:00,59.9,58.2,30.06,North,11,0.0,0.0,94,0.00,,---,0.01,VWS V14.01,2013-10-11 20:49:00,
2013-10-11 16:54:00,59.8,58.1,30.06,North,11,0.0,0.0,94,0.00,,---,0.01,VWS V14.01,2013-10-11 20:54:00,
2013-10-11 16:59:00,59.9,58.2,30.06,North,11,0.0,0.0,94,0.00,,---,0.01,VWS V14.01,2013-10-11 20:59:00,
2013-10-11 17:04:00,59.9,58.2,30.06,North,11,0.0,0.0,94,0.00,,---,0.01,VWS V14.01,2013-10-11 21:04:00,
2013-10-11 17:09:00,60.0,58.3,30.06,North,11,0.0,0.0,94,0.00,,---,0.01,VWS V14.01,2013-10-11 21:09:00,
2013-10-11 17:14:00,60.1,58.4,30.06,North,11,0.0,0.0,94,0.00,,---,0.01,VWS V14.01,2013-10-11 21:14:00,
2013-10-11 17:19:00,60.2,58.5,30.06,NNW,327,1.0,2.0,94,0.00,,---,0.01,VWS V14.01,2013-10-11 21:19:00,
2013-10-11 17:24:00,60.0,58.3,30.06,WNW,299,2.0,2.0,94,0.00,,---,0.01,VWS V14.01,2013-10-11 21:24:00,
2013-10-11 17:29:00,59.9,58.2,30.06,WNW,295,0.0,0.0,94,0.00,,---,0.01,VWS V14.01,2013-10-11 21:29:00,
2013-10-11 17:34:00,59.9,58.2,30.06,WNW,295,0.0,0.0,94,0.00,,---,0.01,VWS V14.01,2013-10-11 21:34:00,
2013-10-11 17:39:00,59.8,58.1,30.06,WNW,295,0.0,0.0,94,0.00,,---,0.01,VWS V14.01,2013-10-11 21:39:00,
2013-10-11 17:44:00,59.8,58.1,30.06,WNW,295,0.0,0.0,94,0.00,,---,0.01,VWS V14.01,2013-10-11 21:44:00,
2013-10-11 17:49:00,59.8,58.1,30.06,WNW,295,0.0,0.0,94,0.00,,---,0.01,VWS V14.01,2013-10-11 21:49:00,
2013-10-11 17:54:00,59.8,58.1,30.06,WNW,295,0.0,0.0,94,0.00,,---,0.01,VWS V14.01,2013-10-11 21:54:00,
2013-10-11 17:59:00,59.8,58.1,30.07,WNW,295,0.0,0.0,94,0.00,,---,0.01,VWS V14.01,2013-10-11 21:59:00,
2013-10-11 18:04:00,59.8,58.1,30.07,WNW,295,0.0,0.0,94,0.00,,---,0.01,VWS V14.01,2013-10-11 22:04:00,
2013-10-11 18:09:00,59.7,58.0,30.06,WNW,295,0.0,0.0,94,0.00,,---,0.01,VWS V14.01,2013-10-11 22:09:00,
2013-10-11 18:14:00,59.7,58.0,30.07,WNW,295,0.0,0.0,94,0.00,,---,0.01,VWS V14.01,2013-10-11 22:14:00,
2013-10-11 18:19:00,59.6,57.9,30.07,WNW,295,0.0,0.0,94,0.00,,---,0.01,VWS V14.01,2013-10-11 22:19:00,
2013-10-11 18:24:00,59.6,57.9,30.07,WNW,295,0.0,0.0,94,0.00,,---,0.01,VWS V14.01,2013-10-11 22:24:00,
2013-10-11 18:29:00,59.6,57.9,30.07,WNW,295,0.0,0.0,94,0.00,,---,0.01,VWS V14.01,2013-10-11 22:29:00,
2013-10-11 18:34:00,59.5,57.8,30.07,WNW,295,0.0,0.0,94,0.00,,---,0.01,VWS V14.01,2013-10-11 22:34:00,
2013-10-11 18:39:00,59.5,57.8,30.07,WNW,295,0.0,0.0,94,0.00,,---,0.01,VWS V14.01,2013-10-11 22:39:00,
2013-10-11 18:44:00,59.4,57.7,30.07,WNW,295,0.0,0.0,94,0.00,,---,0.01,VWS V14.01,2013-10-11 22:44:00,
2013-10-11 18:49:00,59.3,57.6,30.07,WNW,295,0.0,0.0,94,0.00,,---,0.01,VWS V14.01,2013-10-11 22:49:00,
2013-10-11 18:54:00,59.3,57.6,30.07,WNW,295,0.0,0.0,94,0.00,,---,0.01,VWS V14.01,2013-10-11 22:54:00,
2013-10-11 18:59:00,59.3,57.6,30.07,WNW,295,0.0,0.0,94,0.00,,---,0.01,VWS V14.01,2013-10-11 22:59:00,
2013-10-11 19:04:00,59.2,57.5,30.07,WNW,295,0.0,0.0,94,0.00,,---,0.01,VWS V14.01,2013-10-11 23:04:00,
2013-10-11 19:09:00,59.2,57.5,30.07,WNW,295,0.0,0.0,94,0.00,,---,0.01,VWS V14.01,2013-10-11 23:09:00,
2013-10-11 19:14:00,59.2,57.5,30.07,WNW,295,0.0,0.0,94,0.00,,---,0.01,VWS V14.01,2013-10-11 23:14:00,
2013-10-11 19:19:00,59.1,57.4,30.07,WNW,295,0.0,0.0,94,0.00,,---,0.01,VWS V14.01,2013-10-11 23:19:00,
2013-10-11 19:24:00,59.1,57.4,30.07,WNW,295,0.0,0.0,94,0.00,,---,0.01,VWS V14.01,2013-10-11 23:24:00,
2013-10-11 19:29:00,59.0,57.3,30.07,WNW,295,0.0,0.0,94,0.00,,---,0.01,VWS V14.01,2013-10-11 23:29:00,
2013-10-11 19:34:00,59.0,57.3,30.07,WNW,295,0.0,0.0,94,0.00,,---,0.01,VWS V14.01,2013-10-11 23:34:00,
2013-10-11 19:39:00,59.0,57.3,30.07,WNW,295,0.0,0.0,94,0.00,,---,0.01,VWS V14.01,2013-10-11 23:39:00,
2013-10-11 19:44:00,58.9,57.5,30.07,WNW,295,0.0,0.0,95,0.00,,---,0.01,VWS V14.01,2013-10-11 23:44:00,
2013-10-11 19:49:00,58.9,57.5,30.07,WNW,295,0.0,0.0,95,0.00,,---,0.01,VWS V14.01,2013-10-11 23:49:00,
2013-10-11 19:54:00,58.8,57.4,30.07,WNW,295,0.0,0.0,95,0.00,,---,0.01,VWS V14.01,2013-10-11 23:54:00,
2013-10-11 19:59:00,58.8,57.1,30.07,WNW,295,0.0,0.0,94,0.00,,---,0.01,VWS V14.01,2013-10-11 23:59:00,
2013-10-11 20:04:00,58.7,57.0,30.07,WNW,295,0.0,0.0,94,0.00,,---,0.01,VWS V14.01,2013-10-12 00:04:00,
2013-10-11 20:09:00,58.7,57.0,30.07,WNW,295,0.0,0.0,94,0.00,,---,0.01,VWS V14.01,2013-10-12 00:09:00,
2013-10-11 20:14:00,58.7,57.3,30.07,WNW,295,0.0,0.0,95,0.00,,---,0.01,VWS V14.01,2013-10-12 00:14:00,
2013-10-11 20:19:00,58.6,57.2,30.07,WNW,295,0.0,0.0,95,0.00,,---,0.01,VWS V14.01,2013-10-12 00:19:00,
2013-10-11 20:24:00,58.6,57.2,30.07,WNW,295,0.0,0.0,95,0.00,,---,0.01,VWS V14.01,2013-10-12 00:24:00,
2013-10-11 20:29:00,58.5,57.1,30.07,WNW,295,0.0,0.0,95,0.00,,---,0.01,VWS V14.01,2013-10-12 00:29:00,
2013-10-11 20:34:00,58.5,57.1,30.07,WNW,295,0.0,0.0,95,0.00,,---,0.01,VWS V14.01,2013-10-12 00:34:00,
2013-10-11 20:39:00,58.4,57.0,30.07,WNW,295,0.0,0.0,95,0.00,,---,0.01,VWS V14.01,2013-10-12 00:39:00,
2013-10-11 20:44:00,58.4,57.0,30.07,WNW,295,0.0,0.0,95,0.00,,---,0.01,VWS V14.01,2013-10-12 00:44:00,
2013-10-11 20:49:00,58.4,57.0,30.07,WNW,295,0.0,0.0,95,0.00,,---,0.01,VWS V14.01,2013-10-12 00:49:00,
2013-10-11 20:54:00,58.4,57.0,30.07,WNW,295,0.0,0.0,95,0.00,,---,0.01,VWS V14.01,2013-10-12 00:54:00,
2013-10-11 20:59:00,58.4,57.0,30.06,WNW,295,0.0,0.0,95,0.00,,---,0.01,VWS V14.01,2013-10-12 00:59:00,
2013-10-11 21:04:00,58.3,56.9,30.06,WNW,295,0.0,0.0,95,0.00,,---,0.01,VWS V14.01,2013-10-12 01:04:00,
2013-10-11 21:09:00,58.3,56.9,30.06,WNW,295,0.0,0.0,95,0.00,,---,0.01,VWS V14.01,2013-10-12 01:09:00,
2013-10-11 21:14:00,58.3,56.9,30.06,WNW,295,0.0,0.0,95,0.00,,---,0.01,VWS V14.01,2013-10-12 01:14:00,
2013-10-11 21:19:00,58.3,56.9,30.06,WNW,295,0.0,0.0,95,0.00,,---,0.01,VWS V14.01,2013-10-12 01:19:00,
2013-10-11 21:24:00,58.2,56.8,30.06,WNW,295,0.0,0.0,95,0.00,,---,0.01,VWS V14.01,2013-10-12 01:24:00,
2013-10-11 21:29:00,58.2,56.8,30.06,WNW,295,0.0,0.0,95,0.00,,---,0.01,VWS V14.01,2013-10-12 01:29:00,
2013-10-11 21:34:00,58.1,56.7,30.06,WNW,295,0.0,0.0,95,0.00,,---,0.01,VWS V14.01,2013-10-12 01:34:00,
2013-10-11 21:39:00,58.0,56.6,30.07,WNW,295,0.0,0.0,95,0.00,,---,0.01,VWS V14.01,2013-10-12 01:39:00,
2013-10-11 21:44:00,57.9,56.5,30.07,WNW,295,0.0,0.0,95,0.00,,---,0.01,VWS V14.01,2013-10-12 01:44:00,
2013-10-11 21:49:00,57.8,56.4,30.06,WNW,295,0.0,0.0,95,0.00,,---,0.01,VWS V14.01,2013-10-12 01:49:00,
2013-10-11 21:54:00,57.7,56.3,30.06,WNW,295,0.0,0.0,95,0.00,,---,0.01,VWS V14.01,2013-10-12 01:54:00,
2013-10-11 21:59:00,57.6,56.2,30.07,WNW,295,0.0,0.0,95,0.00,,---,0.01,VWS V14.01,2013-10-12 01:59:00,
2013-10-11 22:04:00,57.5,56.1,30.07,WNW,295,0.0,0.0,95,0.00,,---,0.01,VWS V14.01,2013-10-12 02:04:00,
2013-10-11 22:09:00,57.4,56.0,30.07,WNW,295,0.0,0.0,95,0.00,,---,0.01,VWS V14.01,2013-10-12 02:09:00,
2013-10-11 22:14:00,57.3,55.9,30.07,WNW,295,0.0,0.0,95,0.00,,---,0.01,VWS V14.01,2013-10-12 02:14:00,
2013-10-11 22:19:00,57.3,55.9,30.07,WNW,295,0.0,0.0,95,0.00,,---,0.01,VWS V14.01,2013-10-12 02:19:00,
2013-10-11 22:24:00,57.2,55.8,30.07,WNW,295,0.0,0.0,95,0.00,,---,0.01,VWS V14.01,2013-10-12 02:24:00,
2013-10-11 22:29:00,57.2,55.8,30.07,WNW,295,0.0,0.0,95,0.00,,---,0.01,VWS V14.01,2013-10-12 02:29:00,
2013-10-11 22:34:00,57.2,55.8,30.07,WNW,295,0.0,0.0,95,0.00,,---,0.01,VWS V14.01,2013-10-12 02:34:00,
2013-10-11 22:39:00,57.2,56.1,30.07,WNW,295,0.0,0.0,96,0.00,,---,0.01,VWS V14.01,2013-10-12 02:39:00,
2013-10-11 22:44:00,57.2,56.1,30.07,WNW,295,0.0,0.0,96,0.00,,---,0.01,VWS V14.01,2013-10-12 02:44:00,
2013-10-11 22:49:00,57.1,56.0,30.07,WNW,295,0.0,0.0,96,0.00,,---,0.01,VWS V14.01,2013-10-12 02:49:00,
2013-10-11 22:54:00,57.1,55.7,30.07,WNW,295,0.0,0.0,95,0.00,,---,0.01,VWS V14.01,2013-10-12 02:54:00,
2013-10-11 22:59:00,57.1,55.7,30.08,WNW,295,0.0,0.0,95,0.00,,---,0.01,VWS V14.01,2013-10-12 02:59:00,
2013-10-11 23:04:00,57.1,56.0,30.08,WNW,295,0.0,0.0,96,0.00,,---,0.01,VWS V14.01,2013-10-12 03:04:00,
2013-10-11 23:09:00,57.1,56.0,30.07,WNW,295,0.0,0.0,96,0.00,,---,0.01,VWS V14.01,2013-10-12 03:09:00,
2013-10-11 23:14:00,57.1,56.0,30.07,WNW,295,0.0,0.0,96,0.00,,---,0.01,VWS V14.01,2013-10-12 03:14:00,
2013-10-11 23:19:00,57.1,56.0,30.07,WNW,295,0.0,0.0,96,0.00,,---,0.01,VWS V14.01,2013-10-12 03:19:00,
2013-10-11 23:24:00,57.1,56.0,30.07,WNW,295,0.0,0.0,96,0.00,,---,0.01,VWS V14.01,2013-10-12 03:24:00,
2013-10-11 23:29:00,57.1,56.0,30.07,WNW,295,0.0,0.0,96,0.00,,---,0.01,VWS V14.01,2013-10-12 03:29:00,
2013-10-11 23:34:00,57.0,55.9,30.07,WNW,295,0.0,0.0,96,0.00,,---,0.01,VWS V14.01,2013-10-12 03:34:00,
2013-10-11 23:39:00,57.0,55.9,30.07,WNW,295,0.0,0.0,96,0.00,,---,0.01,VWS V14.01,2013-10-12 03:39:00,
2013-10-11 23:44:00,57.0,55.9,30.07,WNW,295,0.0,0.0,96,0.00,,---,0.01,VWS V14.01,2013-10-12 03:44:00,
2013-10-11 23:49:00,56.9,55.8,30.07,WNW,295,0.0,0.0,96,0.00,,---,0.01,VWS V14.01,2013-10-12 03:49:00,
2013-10-11 23:54:00,56.9,55.8,30.07,WNW,295,0.0,0.0,96,0.00,,---,0.01,VWS V14.01,2013-10-12 03:54:00,
2013-10-11 23:59:00,56.8,55.7,30.06,WNW,295,0.0,0.0,96,0.00,,---,0.00,VWS V14.01,2013-10-12 03:59:00,